User: anonymous   Login
Location: Berg
(47.2344°N, 9.5296°E)
Time: 15:15:36
(UTC+00:00)
Language:

Meteor 2-10 Rocket - Orbit

View from above orbital plane
View from above orbital plane
View from above satellite
View from above satellite

Ground track
Ground track

The orbit data is extracted from the following two-line orbital elements,

1 14453U 83109B   21105.16056361  .00000041  00000-0  11617-4 0  9990
2 14453  81.1647 139.8704 0104379 339.6796  20.0241 14.24747156946587
Epoch (UTC): 15 April 2021 03:51:12
Eccentricity: 0.0104379
inclination: 81.1647°
perigee height: 734 km
apogee height: 884 km
right ascension of ascending node: 139.8704°
argument of perigee: 339.6796°
revolutions per day: 14.24747156
mean anomaly at epoch: 20.0241°
orbit number at epoch: 94658

The dashed part of the orbit path shows where the satellite is in the earth's shadow,  

DLR